Time,TemperatureF,DewpointF,PressureIn,WindDirection,WindDirectionDegrees,WindSpeedMPH,WindSpeedGustMPH,Humidity,HourlyPrecipIn,Conditions,Clouds,dailyrainin,SolarRadiationWatts/m^2,SoftwareType,DateUTC
2013-02-14 00:03:00,63.4,60.0,29.95,North,360,0.0,0.0,87,0.00,,,0.00,0,weatherlink.com 1.10,2013-02-14 05:03:00,
2013-02-14 00:19:00,63.6,60.0,29.94,North,360,0.0,0.0,88,0.00,,,0.00,0,weatherlink.com 1.10,2013-02-14 05:19:00,
2013-02-14 00:33:00,63.6,60.0,29.95,North,360,0.0,0.0,88,0.00,,,0.00,0,weatherlink.com 1.10,2013-02-14 05:33:00,
2013-02-14 00:48:00,63.8,60.0,29.95,North,355,0.0,0.0,88,0.00,,,0.00,0,weatherlink.com 1.10,2013-02-14 05:48:00,
2013-02-14 01:03:00,63.9,60.0,29.95,North,360,0.0,1.0,88,0.00,,,0.00,0,weatherlink.com 1.10,2013-02-14 06:03:00,
2013-02-14 01:18:00,64.0,60.0,29.95,North,360,0.0,1.0,87,0.00,,,0.00,0,weatherlink.com 1.10,2013-02-14 06:18:00,
2013-02-14 01:33:00,64.0,60.0,29.94,North,360,0.0,1.0,87,0.00,,,0.00,0,weatherlink.com 1.10,2013-02-14 06:33:00,
2013-02-14 01:48:00,63.8,60.0,29.93,South,169,0.0,4.0,87,0.00,,,0.00,0,weatherlink.com 1.10,2013-02-14 06:48:00,
2013-02-14 02:03:00,63.8,60.0,29.93,South,169,0.0,1.0,88,0.00,,,0.00,0,weatherlink.com 1.10,2013-02-14 07:03:00,
2013-02-14 02:18:00,63.7,60.0,29.93,South,170,0.0,1.0,88,0.00,,,0.00,0,weatherlink.com 1.10,2013-02-14 07:18:00,
2013-02-14 02:33:00,63.7,60.0,29.93,South,169,0.0,0.0,88,0.00,,,0.00,0,weatherlink.com 1.10,2013-02-14 07:33:00,
2013-02-14 02:48:00,63.6,60.0,29.93,South,169,0.0,2.0,88,0.00,,,0.00,0,weatherlink.com 1.10,2013-02-14 07:48:00,
2013-02-14 03:03:00,63.6,60.0,29.93,South,169,0.0,1.0,88,0.00,,,0.00,0,weatherlink.com 1.10,2013-02-14 08:03:00,
2013-02-14 03:18:00,63.7,60.0,29.93,South,170,0.0,0.0,88,0.00,,,0.00,0,weatherlink.com 1.10,2013-02-14 08:18:00,
2013-02-14 03:33:00,63.6,60.0,29.92,South,169,0.0,1.0,88,0.00,,,0.00,0,weatherlink.com 1.10,2013-02-14 08:33:00,
2013-02-14 03:48:00,62.9,59.0,29.90,South,169,0.0,1.0,87,0.00,,,0.00,0,weatherlink.com 1.10,2013-02-14 08:48:00,
2013-02-14 04:03:00,63.1,60.0,29.90,South,169,0.0,1.0,88,0.00,,,0.00,0,weatherlink.com 1.10,2013-02-14 09:03:00,
2013-02-14 04:18:00,63.1,59.0,29.91,South,171,0.0,4.0,87,0.00,,,0.00,0,weatherlink.com 1.10,2013-02-14 09:18:00,
2013-02-14 04:33:00,63.6,60.0,29.90,South,171,0.0,3.0,87,0.00,,,0.00,0,weatherlink.com 1.10,2013-02-14 09:33:00,
2013-02-14 04:48:00,63.8,60.0,29.90,South,171,0.0,4.0,86,0.00,,,0.00,0,weatherlink.com 1.10,2013-02-14 09:48:00,
2013-02-14 05:04:00,64.0,60.0,29.91,South,171,0.0,0.0,86,0.00,,,0.00,0,weatherlink.com 1.10,2013-02-14 10:04:00,
2013-02-14 05:18:00,63.9,60.0,29.92,South,171,0.0,1.0,86,0.00,,,0.00,0,weatherlink.com 1.10,2013-02-14 10:18:00,
2013-02-14 05:34:00,63.5,60.0,29.92,South,171,0.0,1.0,87,0.00,,,0.00,0,weatherlink.com 1.10,2013-02-14 10:34:00,
2013-02-14 05:48:00,63.4,60.0,29.93,South,171,0.0,1.0,88,0.00,,,0.00,0,weatherlink.com 1.10,2013-02-14 10:48:00,
2013-02-14 06:03:00,63.3,60.0,29.93,South,171,0.0,0.0,89,0.00,,,0.00,0,weatherlink.com 1.10,2013-02-14 11:03:00,
2013-02-14 06:18:00,63.2,60.0,29.93,South,171,0.0,0.0,89,0.00,,,0.00,0,weatherlink.com 1.10,2013-02-14 11:18:00,
2013-02-14 06:33:00,62.8,60.0,29.93,South,170,0.0,0.0,89,0.00,,,0.00,0,weatherlink.com 1.10,2013-02-14 11:33:00,
2013-02-14 07:00:00,62.5,60.0,29.93,South,171,0.0,0.0,90,0.00,,,0.00,0,weatherlink.com 1.10,2013-02-14 12:00:00,
2013-02-14 07:18:00,62.5,60.0,29.94,South,171,0.0,2.0,91,0.00,,,0.00,16,weatherlink.com 1.10,2013-02-14 12:18:00,
2013-02-14 07:33:00,62.5,60.0,29.95,South,171,0.0,1.0,90,0.00,,,0.00,23,weatherlink.com 1.10,2013-02-14 12:33:00,
2013-02-14 07:48:00,62.7,60.0,29.96,South,171,0.0,1.0,91,0.00,,,0.00,46,weatherlink.com 1.10,2013-02-14 12:48:00,
2013-02-14 08:03:00,63.0,60.0,29.96,WNW,297,0.0,5.0,91,0.00,,,0.00,39,weatherlink.com 1.10,2013-02-14 13:03:00,
2013-02-14 08:18:00,63.0,60.0,29.97,WSW,242,0.0,1.0,89,0.00,,,0.00,42,weatherlink.com 1.10,2013-02-14 13:18:00,
2013-02-14 08:34:00,63.3,60.0,29.98,WSW,243,0.0,1.0,88,0.00,,,0.00,30,weatherlink.com 1.10,2013-02-14 13:34:00,
2013-02-14 08:49:00,63.5,60.0,29.98,WSW,243,0.0,0.0,88,0.00,,,0.00,25,weatherlink.com 1.10,2013-02-14 13:49:00,
2013-02-14 09:04:00,63.9,60.0,29.98,WSW,243,0.0,0.0,88,0.00,,,0.00,144,weatherlink.com 1.10,2013-02-14 14:04:00,
2013-02-14 09:19:00,65.2,60.0,29.98,WSW,243,0.0,1.0,84,0.00,,,0.00,264,weatherlink.com 1.10,2013-02-14 14:19:00,
2013-02-14 09:34:00,66.2,61.0,29.99,WSW,244,0.0,1.0,82,0.00,,,0.00,113,weatherlink.com 1.10,2013-02-14 14:34:00,
2013-02-14 09:49:00,66.2,60.0,30.00,NNW,346,0.0,5.0,80,0.00,,,0.00,178,weatherlink.com 1.10,2013-02-14 14:49:00,
2013-02-14 10:04:00,66.3,59.0,29.99,NNW,333,3.0,5.0,78,0.00,,,0.00,127,weatherlink.com 1.10,2013-02-14 15:04:00,
2013-02-14 10:19:00,66.1,59.0,30.01,NNE,14,1.0,4.0,79,0.00,,,0.00,102,weatherlink.com 1.10,2013-02-14 15:19:00,
2013-02-14 10:34:00,66.1,60.0,30.00,North,360,1.0,5.0,81,0.00,,,0.00,232,weatherlink.com 1.10,2013-02-14 15:34:00,
2013-02-14 10:49:00,66.4,60.0,30.02,NW,309,0.0,5.0,81,0.00,,,0.00,81,weatherlink.com 1.10,2013-02-14 15:49:00,
2013-02-14 11:04:00,66.1,60.0,30.00,NNE,22,0.0,3.0,80,0.00,,,0.00,142,weatherlink.com 1.10,2013-02-14 16:04:00,
2013-02-14 11:19:00,66.5,61.0,30.01,North,11,2.0,3.0,81,0.00,,,0.00,81,weatherlink.com 1.10,2013-02-14 16:19:00,
2013-02-14 11:34:00,66.1,60.0,30.01,NNW,339,1.0,8.0,80,0.00,,,0.00,54,weatherlink.com 1.10,2013-02-14 16:34:00,
2013-02-14 11:49:00,65.5,60.0,30.02,WSW,241,0.0,8.0,81,0.00,,,0.00,77,weatherlink.com 1.10,2013-02-14 16:49:00,
2013-02-14 12:04:00,65.3,59.0,30.00,NNE,29,4.0,7.0,80,0.00,,,0.00,202,weatherlink.com 1.10,2013-02-14 17:04:00,
2013-02-14 12:19:00,65.2,58.0,30.01,WNW,300,3.0,8.0,78,0.00,,,0.00,114,weatherlink.com 1.10,2013-02-14 17:19:00,
2013-02-14 12:34:00,64.9,58.0,30.00,NNE,28,1.0,11.0,77,0.00,,,0.00,163,weatherlink.com 1.10,2013-02-14 17:34:00,
2013-02-14 12:49:00,65.4,58.0,29.98,NNE,18,6.0,6.0,76,0.00,,,0.00,425,weatherlink.com 1.10,2013-02-14 17:49:00,
2013-02-14 13:04:00,65.8,58.0,29.97,NW,318,4.0,5.0,75,0.00,,,0.00,218,weatherlink.com 1.10,2013-02-14 18:04:00,
2013-02-14 13:19:00,66.1,58.0,29.97,NNW,344,2.0,4.0,74,0.00,,,0.00,230,weatherlink.com 1.10,2013-02-14 18:19:00,
2013-02-14 13:34:00,66.0,57.0,29.96,West,259,0.0,3.0,72,0.00,,,0.00,84,weatherlink.com 1.10,2013-02-14 18:34:00,
2013-02-14 13:49:00,65.8,57.0,29.97,West,259,0.0,1.0,73,0.00,,,0.00,76,weatherlink.com 1.10,2013-02-14 18:49:00,
2013-02-14 14:04:00,65.9,59.0,29.96,West,260,2.0,3.0,77,0.00,,,0.00,206,weatherlink.com 1.10,2013-02-14 19:04:00,
2013-02-14 14:19:00,65.7,58.0,29.95,West,275,0.0,1.0,76,0.00,,,0.00,128,weatherlink.com 1.10,2013-02-14 19:19:00,
2013-02-14 14:34:00,65.7,58.0,29.94,West,275,0.0,1.0,76,0.00,,,0.00,149,weatherlink.com 1.10,2013-02-14 19:34:00,
2013-02-14 14:49:00,65.8,57.0,29.95,North,9,0.0,3.0,74,0.00,,,0.00,72,weatherlink.com 1.10,2013-02-14 19:49:00,
2013-02-14 15:04:00,65.8,58.0,29.93,North,360,0.0,3.0,76,0.01,,,0.01,132,weatherlink.com 1.10,2013-02-14 20:04:00,
2013-02-14 15:19:00,65.6,58.0,29.93,North,9,0.0,2.0,77,0.01,,,0.01,146,weatherlink.com 1.10,2013-02-14 20:19:00,
2013-02-14 15:34:00,65.3,58.0,29.93,North,5,0.0,3.0,77,0.01,,,0.01,62,weatherlink.com 1.10,2013-02-14 20:34:00,
2013-02-14 15:49:00,65.3,58.0,29.94,North,5,0.0,0.0,77,0.01,,,0.01,39,weatherlink.com 1.10,2013-02-14 20:49:00,
2013-02-14 16:04:00,65.1,58.0,29.94,North,5,0.0,0.0,79,0.00,,,0.01,33,weatherlink.com 1.10,2013-02-14 21:04:00,
2013-02-14 16:20:00,64.4,59.0,29.94,North,5,0.0,1.0,82,0.00,,,0.01,19,weatherlink.com 1.10,2013-02-14 21:20:00,
2013-02-14 16:34:00,63.6,59.0,29.95,North,5,0.0,1.0,84,0.01,,,0.02,14,weatherlink.com 1.10,2013-02-14 21:34:00,
2013-02-14 16:49:00,63.2,59.0,29.97,North,360,0.0,2.0,86,0.01,,,0.02,12,weatherlink.com 1.10,2013-02-14 21:49:00,
2013-02-14 17:04:00,62.9,59.0,29.98,North,360,0.0,3.0,87,0.03,,,0.04,7,weatherlink.com 1.10,2013-02-14 22:04:00,
2013-02-14 17:19:00,62.2,59.0,29.97,North,9,0.0,4.0,88,0.05,,,0.06,7,weatherlink.com 1.10,2013-02-14 22:19:00,
2013-02-14 17:34:00,62.0,59.0,29.98,North,360,0.0,1.0,89,0.06,,,0.08,5,weatherlink.com 1.10,2013-02-14 22:34:00,
2013-02-14 17:50:00,61.7,59.0,29.98,NW,322,1.0,3.0,90,0.08,,,0.10,5,weatherlink.com 1.10,2013-02-14 22:50:00,
2013-02-14 18:05:00,61.3,59.0,29.98,NE,42,2.0,5.0,91,0.07,,,0.11,0,weatherlink.com 1.10,2013-02-14 23:05:00,
2013-02-14 18:19:00,60.0,57.0,29.98,North,360,0.0,7.0,91,0.06,,,0.12,0,weatherlink.com 1.10,2013-02-14 23:19:00,
2013-02-14 18:35:00,60.0,57.0,29.98,NNE,22,1.0,3.0,91,0.05,,,0.13,0,weatherlink.com 1.10,2013-02-14 23:35:00,
2013-02-14 18:50:00,59.5,57.0,29.99,NNW,334,0.0,6.0,92,0.04,,,0.14,0,weatherlink.com 1.10,2013-02-14 23:50:00,
2013-02-14 19:05:00,59.3,57.0,29.98,NNE,27,3.0,6.0,92,0.04,,,0.15,0,weatherlink.com 1.10,2013-02-15 00:05:00,
2013-02-14 19:19:00,59.0,57.0,29.98,NNE,19,0.0,3.0,92,0.03,,,0.15,0,weatherlink.com 1.10,2013-02-15 00:19:00,
2013-02-14 19:35:00,59.0,57.0,29.99,NE,51,0.0,2.0,92,0.02,,,0.15,0,weatherlink.com 1.10,2013-02-15 00:35:00,
2013-02-14 19:50:00,59.0,57.0,30.00,ENE,60,0.0,1.0,92,0.02,,,0.16,0,weatherlink.com 1.10,2013-02-15 00:50:00,
2013-02-14 20:05:00,58.8,57.0,30.01,North,360,1.0,4.0,92,0.01,,,0.16,0,weatherlink.com 1.10,2013-02-15 01:05:00,
2013-02-14 20:20:00,58.3,56.0,30.02,NNW,340,3.0,7.0,92,0.01,,,0.16,0,weatherlink.com 1.10,2013-02-15 01:20:00,
2013-02-14 20:35:00,57.7,56.0,30.01,North,5,0.0,7.0,93,0.01,,,0.16,0,weatherlink.com 1.10,2013-02-15 01:35:00,
2013-02-14 20:50:00,57.5,56.0,30.02,North,5,0.0,1.0,93,0.00,,,0.16,0,weatherlink.com 1.10,2013-02-15 01:50:00,
2013-02-14 21:05:00,57.5,56.0,30.02,South,172,0.0,4.0,93,0.00,,,0.16,0,weatherlink.com 1.10,2013-02-15 02:05:00,
2013-02-14 21:20:00,57.4,55.0,29.99,South,171,0.0,1.0,93,0.00,,,0.16,0,weatherlink.com 1.10,2013-02-15 02:20:00,
2013-02-14 21:35:00,57.3,55.0,29.98,East,95,0.0,3.0,93,0.00,,,0.16,0,weatherlink.com 1.10,2013-02-15 02:35:00,
2013-02-14 21:50:00,57.5,56.0,29.99,SSE,168,0.0,4.0,93,0.00,,,0.16,0,weatherlink.com 1.10,2013-02-15 02:50:00,
2013-02-14 22:05:00,57.6,56.0,29.98,SSE,148,0.0,2.0,93,0.00,,,0.16,0,weatherlink.com 1.10,2013-02-15 03:05:00,
2013-02-14 22:20:00,57.9,56.0,29.97,SSE,158,1.0,6.0,93,0.00,,,0.16,0,weatherlink.com 1.10,2013-02-15 03:20:00,
2013-02-14 22:35:00,58.1,56.0,29.98,SSE,159,0.0,2.0,93,0.00,,,0.16,0,weatherlink.com 1.10,2013-02-15 03:35:00,
2013-02-14 22:50:00,58.4,56.0,29.99,SSE,159,0.0,1.0,93,0.00,,,0.16,0,weatherlink.com 1.10,2013-02-15 03:50:00,
2013-02-14 23:05:00,58.9,57.0,30.02,SSE,159,0.0,1.0,94,0.00,,,0.16,0,weatherlink.com 1.10,2013-02-15 04:05:00,
2013-02-14 23:20:00,59.0,57.0,30.01,SSE,159,0.0,1.0,94,0.01,,,0.17,0,weatherlink.com 1.10,2013-02-15 04:20:00,
2013-02-14 23:35:00,59.0,57.0,29.99,SSE,159,0.0,1.0,93,0.01,,,0.17,0,weatherlink.com 1.10,2013-02-15 04:35:00,
2013-02-14 23:50:00,58.8,57.0,29.99,SSE,159,0.0,2.0,94,0.02,,,0.18,0,weatherlink.com 1.10,2013-02-15 04:50:00,